Regional Weather Roundup
Issued by NWS

Home | Current Version | Previous Version | Text Only | Print | Product List | Glossary Off
Versions: 1 2 3 4 5 6 7 8 9 10 11 12 13 14 15 16 17 18 19 20 21 22 23 24 25 26 27 28 29 30 31 32 33 34 35 36 37 38 39 40 41 42 43 44 45 46 47 48 49 50

000
ASUS43 KMPX 300810
RWRMN
WEATHER ROUNDUP FOR MINNESOTA
NATIONAL WEATHER SERVICE TWIN CITIES/CHANHASSEN MN
300 AM CDT SAT MAY 30 2015


NOTE: "FAIR" INDICATES FEW OR NO CLOUDS BELOW 12,000 FEET WITH NO
SIGNIFICANT WEATHER AND/OR OBSTRUCTIONS TO VISIBILITY. N/A MEANS
CURRENT SKY AND/OR WEATHER CONDITIONS ARE NOT AVAILABLE.

MNZ060>063-068>070-300900-
   Twin Cities Metro

CITY           SKY/WX    TMP DP  RH WIND       PRES   REMARKS
TWIN CITIES    MOCLDY    51  42  71 N16G25    30.10R
ST PAUL        CLOUDY    52  45  77 N9G18     30.11R
CRYSTAL        PTCLDY    50  41  71 N10       30.10R
BLAINE         PTCLDY    50  45  81 N12       30.11R
LAKEVILLE      CLOUDY    52  46  82 N10       30.09R
EDEN PRAIRIE   PTCLDY    50  41  71 N14G23    30.09R
SOUTH ST PAUL  CLOUDY    53  45  74 N10G20    30.09R
LAKE ELMO      CLOUDY    50  45  81 N8G16     30.10R
$$
MNZ001>005-007-008-013>017-022>024-027-028-300900-
   Northwest Minnesota

CITY           SKY/WX    TMP DP  RH WIND       PRES   REMARKS
BEMIDJI        CLEAR     38  34  85 N9        30.25R
HALLOCK        CLEAR     34  25  69 N9        30.36S WCI  26
ROSEAU         CLEAR     36  28  75 N9        30.32S
WARROAD        CLEAR     34  28  80 NW9       30.32S WCI  26
THIEF RVR FALL CLEAR     36  28  75 N10       30.32R
CROOKSTON      CLEAR     36  28  75 N14       30.34R
FOSSTON        CLEAR     34  30  86 N13       30.29R WCI  25
DETROIT LAKES  CLEAR     37  32  81 N8        30.27R
MOORHEAD       CLEAR     37  28  70 N15       30.31R
PARK RAPIDS    PTCLDY    41  33  73 N15       30.23R
MAHNOMEN       FAIR      35  31  87 N14       30.28R WCI  26
$$
MNZ006-009>011-018-025>026-300900-
   North Central Minnesota

CITY           SKY/WX    TMP DP  RH WIND       PRES   REMARKS
BAUDETTE       CLOUDY    38  28  67 N14       30.27R
FLAG ISLAND    CLOUDY    37  28  70 N22       30.31R
INTL FALLS     CLOUDY    39  30  70 N17G23    30.23R
WASKISH        CLEAR     39  36  87 NW6       30.26R
BIG FORK       CLEAR     37  32  81 N5        30.22R
LONGVILLE      PTCLDY    43  37  81 NW3       30.20R
GRAND RAPIDS   PTCLDY    43  30  61 N10       30.19R
CRANE LAKE     CLEAR     39  34  81 N6        30.22R
ORR            CLEAR     39  34  81 CALM      30.17S
COOK           CLEAR     39  34  81 NW5       30.19R
WALKER         FAIR      39  35  85 NW3       30.23R
$$
MNZ012-019>021-037-300900-
   Northeast Minnesota

CITY           SKY/WX    TMP DP  RH WIND       PRES   REMARKS
DULUTH         PTCLDY    45  38  76 N8        30.12S
HIBBING        CLEAR     42  35  76 N13       30.17R
EVELETH        CLEAR     43  34  70 N6        30.16S
DULUTH HARBOR  PTCLDY    50  43  76 N10       30.14R
TWO HARBORS    CLEAR     48  41  76 N8        30.09S
SILVER BAY     PTCLDY    46  39  76 NW7       30.09S
GRAND MARAIS     N/A     51  41  68 N18G33    30.05R
G MARAIS ARPRT CLOUDY    43  37  81 NW12G23   30.09R
$$
MNZ029>031-032-039>041-046>048-054>057-064-300900-
   West Central Minnesota

CITY           SKY/WX    TMP DP  RH WIND       PRES   REMARKS
FERGUS FALLS   PTCLDY    41  32  70 N12G17    30.26S
WHEATON        MOCLDY    39  32  75 N13G20    30.28R
MORRIS         PTCLDY    45  37  76 N14       30.21R
ALEXANDRIA     PTCLDY    45  36  70 N14G22    30.21R
ELBOW LAKE     FAIR      42  35  77 N13       30.23R
WADENA         PTCLDY    39  34  81 N10       30.22R
GLENWOOD       PTCLDY    45  37  76 N12       30.20R
APPLETON       PTCLDY    45  39  81 N13       30.21R
BENSON         PTCLDY    45  39  81 N9        30.19S
ORTONVILLE     PTCLDY    43  36  75 N21       30.23R
MADISON          N/A     45  37  76 N15       30.21S
WILLMAR        FAIR      48  43  81 N8        30.19R
$$
MNZ033>034-036-042>043-049>051-058-059-300900-
   Central Minnesota

CITY           SKY/WX    TMP DP  RH WIND       PRES   REMARKS
ST CLOUD       CLEAR     46  39  76 N7        30.15R
SAUK CENTRE    FAIR      46  38  75 N9        30.19R
PAYNESVILLE    CLEAR     43  39  86 NW8       30.17S
AITKIN         PTCLDY    45  36  70 N7        30.16S
PINE RIVER     PTCLDY    45  36  70 N10G16    30.23R
BRAINERD       PTCLDY    45  37  73 N12       30.19R
STAPLES        PTCLDY    43  37  81 NW7       30.21R
LONG PRAIRIE   FAIR      45  36  70 NW8       30.19R
LITTLE FALLS   PTCLDY    45  37  76 N5        30.18R
LITCHFIELD     PTCLDY    48  43  81 N13       30.16R
BUFFALO        PTCLDY    48  39  71 N12G20    30.15R
MAPLE LAKE     MOCLDY    48  42  78 N12       30.15S
$$
MNZ037-044-045-052-053-300900-
   East Central Minnesota

CITY           SKY/WX    TMP DP  RH WIND       PRES   REMARKS
PRINCETON      PTCLDY    46  41  81 N5        30.15R
MORA           PTCLDY    45  37  76 N6        30.16S
CAMBRIDGE      PTCLDY    50  37  62 N8        30.12R
RUSH CITY      PTCLDY    46  40  77 N8        30.13R
MOOSE LAKE     CLEAR     43  36  75 N6        30.13S
HINCKLEY       FAIR      45  39  81 N10       30.13S
CLOQUET        CLEAR     43  36  75 NW8       30.14S
MCGREGOR       CLEAR     43  37  81 NW9       30.17S
$$
MNZ071>073-080-081-089-090-097-098-300900-
   Southwest Minnesota

CITY           SKY/WX    TMP DP  RH WIND       PRES   REMARKS
MONTEVIDEO     CLEAR     45  43  93 N13       30.20R
GRANITE FALLS  CLEAR     46  41  85 NW12      30.20R
CANBY          CLEAR     43  38  83 N9        30.22S
MARSHALL       CLEAR     45  37  76 N15       30.18R
REDWOOD FALLS  CLEAR     48  44  86 N7        30.16R
OLIVIA         CLEAR     46  41  81 N10       30.16R
PIPESTONE      PTCLDY    45  39  81 NE14G22   30.16R
WINDOM         PTCLDY    48  45  87 N16G23    30.13S
WORTHINGTON    PTCLDY    48  39  71 N16G23    30.14R
JACKSON        CLOUDY    50  46  87 N12G21    30.12R
TRACY          CLEAR     46  44  91 N14G20    30.17S
SLAYTON        CLEAR     45  43  93 N20G25    30.16S
$$
MNZ065>067-074>077-082>085-091>093-300900-
   South Central Minnesota

CITY           SKY/WX    TMP DP  RH WIND       PRES   REMARKS
MANKATO        CLOUDY    52  45  76 N15G22    30.09R
NEW ULM        CLEAR     48  45  87 N9        30.13R
ST JAMES       PTCLDY    52  46  82 NW13      30.13R
FAIRMONT       CLOUDY    52  43  71 N17       30.08F
GLENCOE        CLOUDY    51  46  83 N9        30.12R
FARIBAULT      CLOUDY    54  48  82 N13G21    30.07R
OWATONNA       CLOUDY    54  48  82 N16G25    30.06R
WASECA         CLOUDY    52  46  82 N17G23    30.08R
ALBERT LEA     CLOUDY    54  52  94 N15       30.04S FOG
$$
MNZ078>079-086>088-094>096-300900-
   Southeast Minnesota

CITY           SKY/WX    TMP DP  RH WIND       PRES   REMARKS
ROCHESTER      LGT RAIN  53  52  96 N15       30.02R FOG
RED WING       CLOUDY    54  48  82 N9        30.05R
STANTON        CLOUDY    53  47  81 N15G21    30.07R
DODGE CENTER   DRIZZLE   52  52 100 N15G23    30.03S
WINONA         CLOUDY    59  55  88 NW12      29.98S
AUSTIN         CLOUDY    52  50  93 N10G23    30.02R
PRESTON        CLOUDY    56  55  95 N10       29.99R
$$
ABBREVIATIONS USED IN REMARKS
   TC - TEMPERATURES IN CELSIUS
  WCI - WIND CHILL INDEX
   HX - HEAT INDEX
  VSB - VISIBILITY
$$



USA.gov is the U.S. government's official web portal to all federal, state and local government web resources and services.